This demonstration page uses our WeatherBlox Daily Observations layout. Learn more.

Left ArrowRight Arrow

Hourly Observations for November 22, 2022

Temp ( °F °C ) Dew Point ( °F °C ) Humidity (%) Winds ( mph kmh ) Pressure ( in mb ) Visibility ( mi km ) Precip ( " mm )
12:53 am 00:53 Clear 31 -0.6 26 -3.3 82 82 S 6 9 30.26 1025 10 16 0.00 0.00
1:53 am 01:53 Clear 30 -1.1 26 -3.3 85 85 S 7 11 30.26 1025 10 16 0.00 0.00
2:53 am 02:53 Clear 29 -1.7 25 -3.9 85 85 S 6 9 30.25 1024 10 16 0.00 0.00
3:53 am 03:53 Clear 29 -1.7 26 -3.3 89 89 S 5 7 30.25 1024 9 14 0.00 0.00
4:53 am 04:53 Clear 28 -2.2 26 -3.3 92 92 S 5 7 30.24 1024 10 16 0.00 0.00
5:53 am 05:53 Clear 28 -2.2 27 -2.8 96 96 S 7 11 30.25 1025 7 11 0.00 0.00
6:53 am 06:53 Clear with Mist and Fog 27 -2.8 26 -3.3 96 96 S 6 9 30.26 1025 4 6 0.00 0.00
7:53 am 07:53 Partly Cloudy with Mist and Fog 29 -1.7 28 -2.2 96 96 S 6 9 30.27 1025 3 5 0.00 0.00
8:01 am 08:01 Partly Cloudy with Mist and Fog 30 -1.1 29 -1.7 96 96 S 6 9 30.31 1026 1 2 0.00 0.00
8:10 am 08:10 Partly Cloudy with Mist and Fog 31 -0.6 30 -1.1 96 96 S 5 7 30.31 1026 3 4 0.00 0.00
8:50 am 08:50 Partly Cloudy with Mist and Fog 36 2 34 1 93 93 S 5 7 30.29 1026 5 8 0.00 0.00
8:53 am 08:53 Partly Cloudy with Mist and Fog 36 2.2 35 1.7 96 96 S 5 7 30.27 1025 5 8 0.00 0.00
9:53 am 09:53 Mostly Sunny 45 7.2 38 3.3 76 76 S 9 15 30.26 1025 10 16 0.00 0.00
10:53 am 10:53 Mostly Sunny 50 10 38 3.3 63 63 S 12 19 30.26 1025 10 16 0.00 0.00
11:53 am 11:53 Mostly Sunny 55 12.8 39 3.9 55 55 SSW 15 24 30.22 1024 10 16 0.00 0.00
12:53 pm 12:53 Mostly Sunny 59 15 39 3.9 47 47 S 15 24 30.18 1022 10 16 0.00 0.00
1:53 pm 13:53 Sunny 61 16.1 39 3.9 44 44 S 16 26 30.16 1021 10 16 0.00 0.00
2:53 pm 14:53 Sunny 61 16.1 39 3.9 44 44 SSW 14 22 30.15 1021 10 16 0.00 0.00
3:53 pm 15:53 Sunny 60 15.6 38 3.3 44 44 S 15 24 30.14 1021 10 16 0.00 0.00
4:53 pm 16:53 Mostly Sunny 55 12.8 38 3.3 52 52 S 12 19 30.14 1021 10 16 0.00 0.00
5:53 pm 17:53 Mostly Clear 47 8.3 36 2.2 65 65 S 9 15 30.15 1021 10 16 0.00 0.00
6:53 pm 18:53 Mostly Clear 45 7.2 37 2.8 74 74 S 9 15 30.16 1021 10 16 0.00 0.00
7:53 pm 19:53 Mostly Clear 43 6.1 37 2.8 79 79 S 9 15 30.16 1022 10 16 0.00 0.00
8:53 pm 20:53 Mostly Clear 43 6.1 37 2.8 79 79 S 9 15 30.15 1021 10 16 0.00 0.00
9:53 pm 21:53 Mostly Clear 39 3.9 35 1.7 86 86 S 7 11 30.15 1021 10 16 0.00 0.00
10:53 pm 22:53 Mostly Clear 41 5 38 3.3 89 89 S 9 15 30.14 1021 10 16 0.00 0.00
11:53 pm 23:53 Mostly Clear 41 5 38 3.3 89 89 S 10 17 30.13 1020 10 16 0.00 0.00

Powered by AerisWeather